Location: Wallasey
(53.4265°N, 3.0662°W)
Time: 16:15:24
(UTC+00:00)

XW-2B - Pass Details

Date: 14 October 2019
Orbit: 507 x 528 km, 97.5° (Epoch: 15 November)

Event Time Altitude Azimuth Distance (km) Brightness Sun altitude
Rises 19:18:34 0° 205° (SSW) 2,647 ? -9.6°
Reaches altitude 10° 19:21:12 10° 225° (SW) 1,760 ? -10.0°
Maximum altitude 19:23:51 18° 269° (W) 1,329 ? -10.4°
Drops below altitude 10° 19:26:31 10° 314° (NW) 1,762 ? -10.8°
Sets 19:29:10 0° 334° (NNW) 2,652 ? -11.2°
